Wetterdaten Sommer 2019

Datum T max T min Regen
01.06.2019 26.7 °C 12.3 °C 0 mm
02.06.2019 29.4 °C 13.8 °C 0 mm
03.06.2019 29.5 °C 14.9 °C 0.2 mm
04.06.2019 29.8 °C 13.5 °C 0 mm
05.06.2019 29.8 °C 16.7 °C 0 mm
06.06.2019 23.5 °C 10.9 °C 0.4 mm
07.06.2019 27.7 °C 9.3 °C 0 mm
08.06.2019 21.4 °C 12.2 °C 1.6 mm
09.06.2019 23.2 °C 8.3 °C 0.2 mm
10.06.2019 20 °C 14.5 °C 2.8 mm
11.06.2019 17.6 °C 12.9 °C 10.6 mm
12.06.2019 19.3 °C 12.5 °C 9.6 mm
13.06.2019 23.3 °C 13.2 °C 0 mm
14.06.2019 25.6 °C 12.1 °C 0 mm
15.06.2019 23 °C 15.1 °C 0 mm
16.06.2019 21.4 °C 13.8 °C 6.8 mm
17.06.2019 25.8 °C 11.4 °C 0 mm
18.06.2019 28.3 °C 13.8 °C 0 mm
19.06.2019 30.6 °C 16.5 °C 0.2 mm
20.06.2019 22.7 °C 15.6 °C 34.6 mm
21.06.2019 24.1 °C 15.7 °C 0.4 mm
22.06.2019 21 °C 14.7 °C 29.4 mm
23.06.2019 25.1 °C 15.4 °C 0 mm
24.06.2019 29.1 °C 15.5 °C 0 mm
25.06.2019 31.6 °C 16.4 °C 0 mm
26.06.2019 33.3 °C 19.3 °C 0 mm
27.06.2019 30.6 °C 18.2 °C 0 mm
28.06.2019 27.7 °C 13.1 °C 0 mm
29.06.2019 31.1 °C 12.9 °C 0 mm
30.06.2019 34.4 °C 16.1 °C 0 mm
01.07.2019 28.6 °C 19.9 °C 0 mm
02.07.2019 25.3 °C 14.8 °C 0 mm
03.07.2019 24.7 °C 12.3 °C 0 mm
04.07.2019 25.4 °C 11.1 °C 0 mm
05.07.2019 27.9 °C 11.5 °C 0 mm
06.07.2019 29.1 °C 13.6 °C 0 mm
07.07.2019 22.1 °C 14.9 °C 2.4 mm
08.07.2019 21.7 °C 11.8 °C 0 mm
09.07.2019 20.3 °C 9.2 °C 0 mm
10.07.2019 22.6 °C 6.9 °C 0 mm
11.07.2019 17.9 °C 12.8 °C 5 mm
12.07.2019 21.3 °C 14.2 °C 5.6 mm
13.07.2019 21 °C 13.7 °C 0.6 mm
14.07.2019 19.8 °C 12.7 °C 10 mm
15.07.2019 23.1 °C 10.3 °C 0 mm
16.07.2019 23.9 °C 10.2 °C 0 mm
17.07.2019 25.6 °C 10.4 °C 0 mm
18.07.2019 26.5 °C 12.2 °C 0.2 mm
19.07.2019 25.9 °C 16.6 °C 0.2 mm
20.07.2019 31.6 °C 15.3 °C 0 mm
21.07.2019 27.2 °C 18.3 °C 2 mm
22.07.2019 29.2 °C 14.7 °C 0 mm
23.07.2019 32.6 °C 15 °C 0 mm
24.07.2019 34.8 °C 17.4 °C 0 mm
25.07.2019 35.7 °C 17.5 °C 0 mm
26.07.2019 35.2 °C 20.3 °C 3.8 mm
27.07.2019 27.6 °C 18.2 °C 10.2 mm
28.07.2019 22.3 °C 16.3 °C 14.2 mm
29.07.2019 23.4 °C 16.2 °C 0 mm
30.07.2019 26.9 °C 16.1 °C 0 mm
31.07.2019 23.8 °C 16.9 °C 3.2 mm
01.08.2019 24 °C 12.4 °C 0 mm
02.08.2019 25.3 °C 14.8 °C 3 mm
03.08.2019 22.7 °C 14.2 °C 1.6 mm
04.08.2019 26 °C 12.3 °C 0 mm
05.08.2019 27.6 °C 16.1 °C 1.2 mm
06.08.2019 28.2 °C 17.8 °C 9.6 mm
07.08.2019 19.3 °C 15.6 °C 35.8 mm
08.08.2019 25.4 °C 14.2 °C 0 mm
09.08.2019 31.1 °C 15.2 °C 0.4 mm
10.08.2019 25.2 °C 19.3 °C 3.6 mm
11.08.2019 26.9 °C 14.2 °C 4.6 mm
12.08.2019 20.5 °C 13.2 °C 6.2 mm
13.08.2019 19.4 °C 11.8 °C 0 mm
14.08.2019 20.7 °C 10.1 °C 0 mm
15.08.2019 21.8 °C 12.3 °C 2.8 mm
16.08.2019 19.2 °C 13.1 °C 0 mm
17.08.2019 23.3 °C 14.2 °C 3 mm
18.08.2019 30.2 °C 15.6 °C 0.2 mm
19.08.2019 23.2 °C 17.3 °C 2.6 mm
20.08.2019 18.6 °C 13.6 °C 7.6 mm
21.08.2019 21.4 °C 11.1 °C 0 mm
22.08.2019 23.7 °C 9.6 °C 0 mm
23.08.2019 25.4 °C 11.3 °C 0 mm
24.08.2019 25.8 °C 12.6 °C 0 mm
25.08.2019 28.4 °C 15 °C 0 mm
26.08.2019 29 °C 16.8 °C 0 mm
27.08.2019 29.4 °C 17.8 °C 0 mm
28.08.2019 29 °C 17.7 °C 0 mm
29.08.2019 27.6 °C 17.1 °C 0 mm
30.08.2019 28.4 °C 16.7 °C 0 mm
31.08.2019 29.2 °C 16.8 °C 0 mm
 Hinweis zur Datenqualität
∅ Temperatur

19.8 °C

Abweichung vom Mittel

+1.1 °C

Niederschlag

236.4 mm

Abweichung vom Mittel

106 %

35.7 °C

Lufttemperatur
25.07.2019

1029 hPa

Luftdruck
21.08.2019

28.8 km/h

Windböen
03.06.2019

236.4 mm

Niederschlag
 

6.9 °C

Lufttemperatur
10.07.2019

8.1 °C

Bodentemperatur 5cm
01.01.1970

1000 hPa

Luftdruck
27.07.2019
 Hinweis zur Datenqualität